Regional Weather Roundup
Issued by NWS

Home | Current Version | Previous Version | Graphics & Text | Print | Product List | Glossary On
Versions: 1 2 3 4 5 6 7 8 9 10 11 12 13 14 15 16 17 18 19 20 21 22 23 24 25 26 27 28 29 30 31 32 33 34 35 36 37 38 39 40 41 42 43 44 45 46 47 48 49 50
943
ASUS43 KLSX 250710
RWRMO

WEATHER SUMMARY FOR MISSOURI
NATIONAL WEATHER SERVICE SPRINGFIELD MO
100 AM CST SAT FEB 25 2017

NOTE: "FAIR" INDICATES FEW OR NO CLOUDS BELOW 12,000 FEET WITH NO
       SIGNIFICANT WEATHER AND/OR OBSTRUCTIONS TO VISIBILITY.
       CURRENT SKY AND/OR WEATHER CONDITIONS ARE NOT AVAILABLE FOR
       CHILLICOTHE AND FARMINGTON.

MOZ001>031-035>038-043-044-053-054-250800-
...NORTHERN AND WESTERN MISSOURI...

CITY           SKY/WX    TMP DP  RH WIND       PRES   REMARKS
KANSAS CTY INT CLOUDY    25  19  78 W9        30.07R WCI  15
KANSAS C DTWN  CLOUDY    28  18  66 W12       30.09R WCI  18
LEE`S SUMMIT   CLOUDY    26  18  71 W14       30.07R WCI  14
ST JOSEPH      CLOUDY    26  20  77 NW15      30.08R WCI  14
CHILLICOTHE      N/A     26  17  68 NW12      30.02R WCI  16
KIRKSVILLE     CLOUDY    25  19  78 NW16      29.92R WCI  12

$$
MOZ066>068-077>081-088>096-101>105-250800-
...SOUTHWEST MISSOURI...

CITY           SKY/WX    TMP DP  RH WIND       PRES   REMARKS
SPRINGFIELD    CLOUDY    29  18  63 NW13G20   30.04R WCI  19
JOPLIN         CLOUDY    29  19  66 NW17      30.13R WCI  17
BRANSON        CLOUDY    30  18  59 NW15G22   30.04S WCI  19

$$
MOZ032>034-039>042-045>050-055>058-069>072-250800-
...CENTRAL MISSOURI...

CITY           SKY/WX    TMP DP  RH WIND       PRES   REMARKS
COLUMBIA       FLURRIES  28  18  66 W16G29    29.96R WCI  16
JEFFERSON CITY MOCLDY    28  17  63 NW22G29   29.99R WCI  14
ROLLA          CLOUDY    28  17  63 W18G26    29.94S WCI  15
SEDALIA        CLEAR     26  18  71 W17G24    30.03S WCI  13
WHITEMAN AFB   MOCLDY    26  19  75 NW13      30.03S WCI  15
WARRENSBURG    PTCLDY    27  18  69 W12       30.07R WCI  16
OSAGE BEACH    CLOUDY    30  19  63 NW8G22    30.02R WCI  22

$$
MOZ051-052-059>065-250800-
...EAST CENTRAL MISSOURI...

CITY           SKY/WX    TMP DP  RH WIND       PRES   REMARKS
ST LOUIS INTL  CLOUDY    33  19  56 W23G38    29.88R WCI  21
SPIRIT OF STL  CLOUDY    32  20  61 W26G37    29.90R WCI  18
ST CHARLES     CLOUDY    32  21  64 W20G37    29.88R WCI  20

$$
MOZ072>076-082>087-097>100-106>115-250800-
...SOUTH CENTRAL AND SOUTHEAST MISSOURI...

CITY           SKY/WX    TMP DP  RH WIND       PRES   REMARKS
CAPE GIRARDEAU CLEAR     40  26  57 W15       29.86R
FARMINGTON     CLOUDY    33  19  56 NW20G29   29.90R WCI  21
POPLAR BLUFF   CLEAR     39  24  55 NW21G30   29.90R WCI  29
WEST PLAINS    CLOUDY    32  20  61 W15G24    29.97R WCI  22

$$




USA.gov is the U.S. government's official web portal to all federal, state and local government web resources and services.